Location: Highridge
(54.0333°N, 114.1333°W)
Time: 14:35:41
(UTC+00:00)

Oscar 19 - Pass Details

Date: 07 December 2023
Orbit: 771 x 789 km, 98.9° (Epoch: 01 March)

Event Time Altitude Azimuth Distance (km) Brightness Sun altitude
Rises 14:13:09 0° 10° (N) 3,274 13.7 -11.8°
Reaches altitude 10° 14:15:53 10° 356° (N) 2,345 12.9 -11.5°
Maximum altitude 14:19:51 23° 306° (NW) 1,626 11.7 -10.9°
Drops below altitude 10° 14:23:48 10° 256° (WSW) 2,344 12.7 -10.4°
Sets 14:26:32 0° 242° (WSW) 3,271 13.5 -10.0°
